Location: �clusier
(49.9361°N, 2.7869°E)
Time: 00:16:52
(UTC+00:00)

NOAA 13 - Visible Passes

Search period start: 01 December 2023 00:00
Search period end: 11 December 2023 00:00
Orbit: 843 x 855 km, 98.6° (Epoch: 29 November)

Date Brightness Start Highest point End Pass type
(mag) Time Alt. Az. Time Alt. Az. Time Alt. Az.
01 Dec 7.2 03:19:14 10° NNE 03:19:39 12° NNE 03:19:39 12° NNE visible
01 Dec 6.7 05:00:52 10° N 05:01:36 13° NNW 05:01:36 13° NNW visible
02 Dec 7.4 03:06:52 10° NNE 03:07:01 11° NNE 03:07:01 11° NNE visible
02 Dec 6.8 04:48:14 10° N 04:48:58 13° N 04:48:58 13° N visible
03 Dec 6.8 04:35:39 10° N 04:36:20 13° N 04:36:20 13° N visible
04 Dec 6.9 04:23:06 10° N 04:23:41 13° N 04:23:41 13° N visible
05 Dec 7.0 04:10:36 10° N 04:11:04 12° N 04:11:04 12° N visible
06 Dec 7.1 03:58:07 10° N 03:58:26 12° N 03:58:26 12° N visible
07 Dec 7.2 03:45:39 10° N 03:45:49 11° N 03:45:49 11° N visible
10 Dec 7.0 04:49:52 10° N 04:49:54 10° N 04:49:54 10° N visible
